Time,TemperatureF,DewpointF,PressureIn,WindDirection,WindDirectionDegrees,WindSpeedMPH,WindSpeedGustMPH,Humidity,HourlyPrecipIn,Conditions,Clouds,dailyrainin,SoftwareType,DateUTC
2013-04-18 00:00:00,35.7,26.2,30.50,ESE,114,0.0,0.0,68,0.00,,SKC,0.00,VWS V13.01,2013-04-18 04:00:00,
2013-04-18 00:01:00,35.7,26.2,30.50,ESE,114,0.0,0.0,68,0.00,,SKC,0.00,VWS V13.01,2013-04-18 04:01:00,
2013-04-18 00:02:00,35.6,26.1,30.50,ESE,114,0.0,0.0,68,0.00,,SKC,0.00,VWS V13.01,2013-04-18 04:02:00,
2013-04-18 00:07:00,35.2,25.7,30.50,ESE,114,0.0,0.0,68,0.00,,SKC,0.00,VWS V13.01,2013-04-18 04:07:00,
2013-04-18 00:12:00,34.7,25.6,30.50,ESE,114,0.0,0.0,69,0.00,,SKC,0.00,VWS V13.01,2013-04-18 04:12:00,
2013-04-18 00:17:00,34.3,25.2,30.50,ESE,114,0.0,0.0,69,0.00,,SKC,0.00,VWS V13.01,2013-04-18 04:17:00,
2013-04-18 00:22:00,34.3,25.2,30.50,ESE,114,0.0,0.0,69,0.00,,SKC,0.00,VWS V13.01,2013-04-18 04:22:00,
2013-04-18 00:27:00,34.1,25.0,30.49,ESE,114,0.0,0.0,69,0.00,,SKC,0.00,VWS V13.01,2013-04-18 04:27:00,
2013-04-18 00:32:00,33.9,25.2,30.50,ESE,114,0.0,0.0,70,0.00,,SKC,0.00,VWS V13.01,2013-04-18 04:32:00,
2013-04-18 00:37:00,33.9,25.2,30.49,ESE,114,0.0,0.0,70,0.00,,SKC,0.00,VWS V13.01,2013-04-18 04:37:00,
2013-04-18 00:42:00,33.9,25.2,30.49,ESE,114,0.0,0.0,70,0.00,,SKC,0.00,VWS V13.01,2013-04-18 04:42:00,
2013-04-18 00:47:00,33.8,25.1,30.49,ESE,114,0.0,0.0,70,0.00,,SKC,0.00,VWS V13.01,2013-04-18 04:47:00,
2013-04-18 00:52:00,33.4,24.7,30.49,ESE,114,0.0,0.0,70,0.00,,SKC,0.00,VWS V13.01,2013-04-18 04:52:00,
2013-04-18 00:57:00,33.0,24.3,30.50,ESE,114,0.0,0.0,70,0.00,,SKC,0.00,VWS V13.01,2013-04-18 04:57:00,
2013-04-18 01:02:00,32.9,24.2,30.50,ESE,114,0.0,0.0,70,0.00,,SKC,0.00,VWS V13.01,2013-04-18 05:02:00,
2013-04-18 01:07:00,32.7,24.4,30.49,ESE,114,0.0,0.0,71,0.00,,SKC,0.00,VWS V13.01,2013-04-18 05:07:00,
2013-04-18 01:12:00,32.5,24.2,30.49,ESE,114,0.0,0.0,71,0.00,,SKC,0.00,VWS V13.01,2013-04-18 05:12:00,
2013-04-18 01:17:00,32.5,24.2,30.49,ESE,114,0.0,0.0,71,0.00,,SKC,0.00,VWS V13.01,2013-04-18 05:17:00,
2013-04-18 01:22:00,32.3,24.3,30.48,ESE,114,0.0,0.0,72,0.00,,SKC,0.00,VWS V13.01,2013-04-18 05:22:00,
2013-04-18 01:27:00,32.3,24.3,30.48,ESE,114,0.0,0.0,72,0.00,,SKC,0.00,VWS V13.01,2013-04-18 05:27:00,
2013-04-18 01:32:00,32.3,24.3,30.48,ESE,114,0.0,0.0,72,0.00,,SKC,0.00,VWS V13.01,2013-04-18 05:32:00,
2013-04-18 01:37:00,32.3,24.3,30.48,ESE,114,0.0,0.0,72,0.00,,SKC,0.00,VWS V13.01,2013-04-18 05:37:00,
2013-04-18 01:42:00,32.3,24.3,30.48,ESE,114,0.0,0.0,72,0.00,,SKC,0.00,VWS V13.01,2013-04-18 05:42:00,
2013-04-18 01:47:00,32.1,24.1,30.48,ESE,114,0.0,0.0,72,0.00,,SKC,0.00,VWS V13.01,2013-04-18 05:47:00,
2013-04-18 01:53:00,32.1,24.4,30.49,ESE,114,0.0,0.0,73,0.00,,SKC,0.00,VWS V13.01,2013-04-18 05:53:00,
2013-04-18 01:58:00,32.1,24.4,30.48,ESE,114,0.0,0.0,73,0.00,,SKC,0.00,VWS V13.01,2013-04-18 05:58:00,
2013-04-18 02:03:00,32.1,24.4,30.48,ESE,114,0.0,0.0,73,0.00,,SKC,0.00,VWS V13.01,2013-04-18 06:03:00,
2013-04-18 02:08:00,32.1,24.4,30.47,ESE,114,0.0,0.0,73,0.00,,SKC,0.00,VWS V13.01,2013-04-18 06:08:00,
2013-04-18 02:13:00,32.1,24.4,30.47,ESE,114,0.0,0.0,73,0.00,,SKC,0.00,VWS V13.01,2013-04-18 06:13:00,
2013-04-18 02:18:00,32.1,24.4,30.47,ESE,114,0.0,0.0,73,0.00,,SKC,0.00,VWS V13.01,2013-04-18 06:18:00,
2013-04-18 02:23:00,32.0,24.7,30.47,ESE,114,0.0,0.0,74,0.00,,SKC,0.00,VWS V13.01,2013-04-18 06:23:00,
2013-04-18 02:28:00,31.8,24.5,30.47,ESE,114,0.0,0.0,74,0.00,,SKC,0.00,VWS V13.01,2013-04-18 06:28:00,
2013-04-18 02:33:00,31.8,24.5,30.46,ESE,114,0.0,0.0,74,0.00,,SKC,0.00,VWS V13.01,2013-04-18 06:33:00,
2013-04-18 02:38:00,31.8,24.5,30.47,ESE,114,0.0,0.0,74,0.00,,SKC,0.00,VWS V13.01,2013-04-18 06:38:00,
2013-04-18 02:43:00,31.8,24.5,30.48,ESE,114,0.0,0.0,74,0.00,,SKC,0.00,VWS V13.01,2013-04-18 06:43:00,
2013-04-18 02:48:00,31.8,24.8,30.48,ESE,114,0.0,0.0,75,0.00,,SKC,0.00,VWS V13.01,2013-04-18 06:48:00,
2013-04-18 02:53:00,31.8,24.8,30.48,ESE,114,0.0,0.0,75,0.00,,SKC,0.00,VWS V13.01,2013-04-18 06:53:00,
2013-04-18 02:58:00,32.1,25.1,30.49,ESE,114,0.0,0.0,75,0.00,,SKC,0.00,VWS V13.01,2013-04-18 06:58:00,
2013-04-18 03:03:00,32.1,25.1,30.48,ESE,114,0.0,0.0,75,0.00,,SKC,0.00,VWS V13.01,2013-04-18 07:03:00,
2013-04-18 03:08:00,32.3,25.6,30.49,ESE,114,0.0,0.0,76,0.00,,SKC,0.00,VWS V13.01,2013-04-18 07:08:00,
2013-04-18 03:13:00,32.5,25.8,30.48,ESE,114,0.0,0.0,76,0.00,,SKC,0.00,VWS V13.01,2013-04-18 07:13:00,
2013-04-18 03:18:00,32.5,25.8,30.49,ESE,114,0.0,0.0,76,0.00,,SKC,0.00,VWS V13.01,2013-04-18 07:18:00,
2013-04-18 03:23:00,32.3,25.6,30.48,ESE,114,0.0,0.0,76,0.00,,SKC,0.00,VWS V13.01,2013-04-18 07:23:00,
2013-04-18 03:28:00,32.3,25.6,30.48,ESE,114,0.0,0.0,76,0.00,,SKC,0.00,VWS V13.01,2013-04-18 07:28:00,
2013-04-18 03:33:00,32.3,25.6,30.48,ESE,114,0.0,0.0,76,0.00,,SKC,0.00,VWS V13.01,2013-04-18 07:33:00,
2013-04-18 03:38:00,32.5,25.8,30.49,ESE,114,0.0,0.0,76,0.00,,SKC,0.00,VWS V13.01,2013-04-18 07:38:00,
2013-04-18 03:43:00,32.5,26.1,30.49,ESE,114,0.0,0.0,77,0.00,,SKC,0.00,VWS V13.01,2013-04-18 07:43:00,
2013-04-18 03:48:00,32.7,26.3,30.50,ESE,114,0.0,0.0,77,0.00,,SKC,0.00,VWS V13.01,2013-04-18 07:48:00,
2013-04-18 03:53:00,32.7,26.3,30.49,ESE,114,0.0,0.0,77,0.00,,SKC,0.00,VWS V13.01,2013-04-18 07:53:00,
2013-04-18 03:58:00,32.9,26.5,30.49,ESE,114,0.0,0.0,77,0.00,,SKC,0.00,VWS V13.01,2013-04-18 07:58:00,
2013-04-18 04:03:00,33.2,26.8,30.49,ESE,114,0.0,0.0,77,0.00,,SKC,0.00,VWS V13.01,2013-04-18 08:03:00,
2013-04-18 04:08:00,33.4,27.3,30.48,ESE,114,0.0,0.0,78,0.00,,SKC,0.00,VWS V13.01,2013-04-18 08:08:00,
2013-04-18 04:13:00,33.4,27.3,30.48,ESE,114,0.0,0.0,78,0.00,,SKC,0.00,VWS V13.01,2013-04-18 08:13:00,
2013-04-18 04:18:00,33.6,27.5,30.48,ESE,114,0.0,0.0,78,0.00,,SKC,0.00,VWS V13.01,2013-04-18 08:18:00,
2013-04-18 04:23:00,33.6,27.5,30.48,ESE,114,0.0,0.0,78,0.00,,SKC,0.00,VWS V13.01,2013-04-18 08:23:00,
2013-04-18 04:28:00,33.8,27.7,30.47,ESE,114,0.0,0.0,78,0.00,,SKC,0.00,VWS V13.01,2013-04-18 08:28:00,
2013-04-18 04:33:00,34.1,28.0,30.47,ESE,114,0.0,0.0,78,0.00,,SKC,0.00,VWS V13.01,2013-04-18 08:33:00,
2013-04-18 04:38:00,34.3,28.2,30.48,ESE,114,0.0,0.0,78,0.00,,SKC,0.00,VWS V13.01,2013-04-18 08:38:00,
2013-04-18 04:43:00,34.3,28.2,30.47,ESE,114,0.0,0.0,78,0.00,,SKC,0.00,VWS V13.01,2013-04-18 08:43:00,
2013-04-18 04:48:00,34.3,28.2,30.48,ESE,114,0.0,0.0,78,0.00,,SKC,0.00,VWS V13.01,2013-04-18 08:48:00,
2013-04-18 04:53:00,34.3,27.9,30.48,ESE,114,0.0,0.0,77,0.00,,SKC,0.00,VWS V13.01,2013-04-18 08:53:00,
2013-04-18 04:58:00,34.5,28.0,30.49,ESE,114,0.0,0.0,77,0.00,,SKC,0.00,VWS V13.01,2013-04-18 08:58:00,
2013-04-18 05:03:00,34.5,28.0,30.48,ESE,114,0.0,0.0,77,0.00,,SKC,0.00,VWS V13.01,2013-04-18 09:03:00,
2013-04-18 05:08:00,34.5,28.0,30.48,ESE,114,0.0,0.0,77,0.00,,SKC,0.00,VWS V13.01,2013-04-18 09:08:00,
2013-04-18 05:13:00,34.3,27.9,30.48,ESE,114,0.0,0.0,77,0.00,,SKC,0.00,VWS V13.01,2013-04-18 09:13:00,
2013-04-18 05:18:00,34.3,28.2,30.48,ESE,114,0.0,0.0,78,0.00,,SKC,0.00,VWS V13.01,2013-04-18 09:18:00,
2013-04-18 05:23:00,34.3,28.2,30.49,ESE,114,0.0,0.0,78,0.00,,SKC,0.00,VWS V13.01,2013-04-18 09:23:00,
2013-04-18 05:28:00,34.3,28.2,30.49,ESE,114,0.0,0.0,78,0.00,,SKC,0.00,VWS V13.01,2013-04-18 09:28:00,
2013-04-18 05:33:00,34.3,28.2,30.49,ESE,114,0.0,0.0,78,0.00,,SKC,0.00,VWS V13.01,2013-04-18 09:33:00,
2013-04-18 05:38:00,34.3,28.2,30.49,ESE,114,0.0,0.0,78,0.00,,SKC,0.00,VWS V13.01,2013-04-18 09:38:00,
2013-04-18 05:43:00,34.3,28.2,30.49,ESE,114,0.0,0.0,78,0.00,,SKC,0.00,VWS V13.01,2013-04-18 09:43:00,
2013-04-18 05:48:00,34.3,28.2,30.50,ESE,114,0.0,0.0,78,0.00,,SKC,0.00,VWS V13.01,2013-04-18 09:48:00,
2013-04-18 05:53:00,34.3,28.2,30.49,ESE,114,0.0,0.0,78,0.00,,SKC,0.00,VWS V13.01,2013-04-18 09:53:00,
2013-04-18 05:58:00,34.3,28.2,30.48,ESE,114,0.0,0.0,78,0.00,,SKC,0.00,VWS V13.01,2013-04-18 09:58:00,
2013-04-18 06:03:00,34.1,28.3,30.48,ESE,114,0.0,0.0,79,0.00,,SKC,0.00,VWS V13.01,2013-04-18 10:03:00,
2013-04-18 06:08:00,34.3,28.5,30.48,ESE,114,0.0,0.0,79,0.00,,SKC,0.00,VWS V13.01,2013-04-18 10:08:00,
2013-04-18 06:13:00,34.3,28.5,30.49,ESE,114,0.0,0.0,79,0.00,,SKC,0.00,VWS V13.01,2013-04-18 10:13:00,
2013-04-18 06:18:00,34.3,28.5,30.49,ESE,114,0.0,0.0,79,0.00,,SKC,0.00,VWS V13.01,2013-04-18 10:18:00,
2013-04-18 06:23:00,34.3,28.5,30.49,ESE,114,0.0,0.0,79,0.00,,SKC,0.00,VWS V13.01,2013-04-18 10:23:00,
2013-04-18 06:28:00,34.5,28.7,30.48,ESE,114,0.0,0.0,79,0.00,,SKC,0.00,VWS V13.01,2013-04-18 10:28:00,
2013-04-18 06:33:00,34.8,29.0,30.48,ESE,114,0.0,0.0,79,0.00,,SKC,0.00,VWS V13.01,2013-04-18 10:33:00,
2013-04-18 06:38:00,35.0,29.2,30.48,ESE,114,0.0,0.0,79,0.00,,SKC,0.00,VWS V13.01,2013-04-18 10:38:00,
2013-04-18 06:43:00,35.2,29.4,30.48,ESE,114,0.0,0.0,79,0.00,,SKC,0.00,VWS V13.01,2013-04-18 10:43:00,
2013-04-18 06:48:00,35.4,29.5,30.48,ESE,114,0.0,0.0,79,0.00,,SKC,0.00,VWS V13.01,2013-04-18 10:48:00,
2013-04-18 06:53:00,35.4,29.5,30.49,ESE,114,0.0,0.0,79,0.00,,SKC,0.00,VWS V13.01,2013-04-18 10:53:00,
2013-04-18 06:58:00,35.7,29.8,30.48,ESE,114,0.0,0.0,79,0.00,,SKC,0.00,VWS V13.01,2013-04-18 10:58:00,
2013-04-18 07:03:00,36.3,30.4,30.48,ESE,114,0.0,0.0,79,0.00,,SKC,0.00,VWS V13.01,2013-04-18 11:03:00,
2013-04-18 07:09:00,36.5,30.6,30.48,ESE,114,0.0,0.0,79,0.00,,SKC,0.00,VWS V13.01,2013-04-18 11:09:00,
2013-04-18 07:14:00,36.8,30.6,30.48,ESE,114,0.0,0.0,78,0.00,,SKC,0.00,VWS V13.01,2013-04-18 11:14:00,
2013-04-18 07:19:00,37.2,31.0,30.47,ESE,114,0.0,0.0,78,0.00,,SKC,0.00,VWS V13.01,2013-04-18 11:19:00,
2013-04-18 07:24:00,37.5,31.3,30.47,ESE,114,0.0,0.0,78,0.00,,SKC,0.00,VWS V13.01,2013-04-18 11:24:00,
2013-04-18 07:29:00,37.9,32.0,30.47,ESE,114,0.0,0.0,79,0.00,,SKC,0.00,VWS V13.01,2013-04-18 11:29:00,
2013-04-18 07:34:00,38.3,32.4,30.46,ESE,114,0.0,0.0,79,0.00,,SKC,0.00,VWS V13.01,2013-04-18 11:34:00,
2013-04-18 07:39:00,38.4,32.2,30.46,ESE,114,0.0,0.0,78,0.00,,SKC,0.00,VWS V13.01,2013-04-18 11:39:00,
2013-04-18 07:44:00,38.8,32.5,30.46,ESE,114,0.0,0.0,78,0.00,,SKC,0.00,VWS V13.01,2013-04-18 11:44:00,
2013-04-18 07:49:00,39.2,32.9,30.46,NE,46,0.0,0.0,78,0.00,,SKC,0.00,VWS V13.01,2013-04-18 11:49:00,
2013-04-18 07:54:00,39.3,33.0,30.47,NE,46,0.0,0.0,78,0.00,,SKC,0.00,VWS V13.01,2013-04-18 11:54:00,
2013-04-18 07:59:00,39.7,33.4,30.46,NE,46,0.0,0.0,78,0.00,,SKC,0.00,VWS V13.01,2013-04-18 11:59:00,
2013-04-18 08:04:00,40.2,33.9,30.46,ESE,114,0.0,0.0,78,0.00,,SKC,0.00,VWS V13.01,2013-04-18 12:04:00,
2013-04-18 08:09:00,41.1,34.8,30.46,NE,46,0.0,0.0,78,0.00,,SKC,0.00,VWS V13.01,2013-04-18 12:09:00,
2013-04-18 08:14:00,41.7,35.4,30.45,NNE,24,0.0,0.0,78,0.00,,SKC,0.00,VWS V13.01,2013-04-18 12:14:00,
2013-04-18 08:19:00,42.6,36.2,30.46,NNE,24,0.0,0.0,78,0.00,,SKC,0.00,VWS V13.01,2013-04-18 12:19:00,
2013-04-18 08:24:00,43.1,36.4,30.46,NE,46,0.0,0.0,77,0.00,,SKC,0.00,VWS V13.01,2013-04-18 12:24:00,
2013-04-18 08:29:00,43.5,36.5,30.46,NE,46,0.0,0.0,76,0.00,,SKC,0.00,VWS V13.01,2013-04-18 12:29:00,
2013-04-18 08:34:00,43.7,36.3,30.46,NNE,24,0.0,0.0,75,0.00,,SKC,0.00,VWS V13.01,2013-04-18 12:34:00,
2013-04-18 08:39:00,43.7,36.0,30.46,East,91,0.0,0.0,74,0.00,,SKC,0.00,VWS V13.01,2013-04-18 12:39:00,
2013-04-18 08:44:00,43.7,36.0,30.46,ENE,68,0.0,0.0,74,0.00,,SKC,0.00,VWS V13.01,2013-04-18 12:44:00,
2013-04-18 08:49:00,43.8,36.1,30.45,ENE,68,0.0,0.0,74,0.00,,SKC,0.00,VWS V13.01,2013-04-18 12:49:00,
2013-04-18 08:54:00,44.2,36.5,30.44,ESE,114,0.0,0.0,74,0.00,,SKC,0.00,VWS V13.01,2013-04-18 12:54:00,
2013-04-18 08:59:00,44.6,36.5,30.43,East,91,0.0,0.0,73,0.00,,SKC,0.00,VWS V13.01,2013-04-18 12:59:00,
2013-04-18 09:04:00,44.9,36.8,30.44,NNE,24,0.0,0.0,73,0.00,,SKC,0.00,VWS V13.01,2013-04-18 13:04:00,
2013-04-18 09:09:00,45.1,36.6,30.44,NE,46,0.0,0.0,72,0.00,,SKC,0.00,VWS V13.01,2013-04-18 13:09:00,
2013-04-18 09:14:00,45.1,36.3,30.43,ESE,114,0.0,0.0,71,0.00,,SKC,0.00,VWS V13.01,2013-04-18 13:14:00,
2013-04-18 09:19:00,45.1,36.3,30.43,ESE,114,0.0,0.0,71,0.00,,SKC,0.00,VWS V13.01,2013-04-18 13:19:00,
2013-04-18 09:24:00,45.1,36.3,30.42,SE,136,0.0,0.0,71,0.00,,SKC,0.00,VWS V13.01,2013-04-18 13:24:00,
2013-04-18 09:29:00,45.5,36.7,30.42,SE,136,0.0,0.0,71,0.00,,SKC,0.00,VWS V13.01,2013-04-18 13:29:00,
2013-04-18 09:34:00,45.6,36.4,30.42,NE,46,0.0,0.0,70,0.00,,SKC,0.00,VWS V13.01,2013-04-18 13:34:00,
2013-04-18 09:39:00,46.2,37.0,30.41,WSW,248,0.0,0.0,70,0.00,,SKC,0.00,VWS V13.01,2013-04-18 13:39:00,
2013-04-18 09:44:00,46.5,36.9,30.41,WSW,248,0.0,0.0,69,0.00,,SKC,0.00,VWS V13.01,2013-04-18 13:44:00,
2013-04-18 09:49:00,47.1,37.5,30.41,WSW,248,0.0,0.0,69,0.00,,SKC,0.00,VWS V13.01,2013-04-18 13:49:00,
2013-04-18 09:54:00,48.5,38.4,30.41,WSW,248,0.0,7.1,68,0.00,,SKC,0.00,VWS V13.01,2013-04-18 13:54:00,
2013-04-18 09:59:00,49.6,37.9,30.40,WSW,248,3.8,3.8,64,0.00,,SKC,0.00,VWS V13.01,2013-04-18 13:59:00,
2013-04-18 10:04:00,50.1,37.6,30.40,SSE,158,0.0,0.0,62,0.00,,SKC,0.00,VWS V13.01,2013-04-18 14:04:00,
2013-04-18 10:09:00,50.9,38.0,30.40,SSE,158,0.4,0.4,61,0.00,,SKC,0.00,VWS V13.01,2013-04-18 14:09:00,
2013-04-18 10:14:00,51.2,37.4,30.40,SE,136,2.2,2.2,59,0.00,,SKC,0.00,VWS V13.01,2013-04-18 14:14:00,
2013-04-18 10:19:00,51.6,37.3,30.40,South,181,2.6,2.6,58,0.00,,SKC,0.00,VWS V13.01,2013-04-18 14:19:00,
2013-04-18 10:24:00,52.8,37.1,30.40,NW,316,1.7,3.5,55,0.00,,SKC,0.00,VWS V13.01,2013-04-18 14:24:00,
2013-04-18 10:29:00,53.4,37.7,30.41,SSW,204,0.0,0.0,55,0.00,,SKC,0.00,VWS V13.01,2013-04-18 14:29:00,
2013-04-18 10:34:00,53.7,36.5,30.40,NNE,24,4.9,4.9,52,0.00,,SKC,0.00,VWS V13.01,2013-04-18 14:34:00,
2013-04-18 10:39:00,53.4,35.7,30.39,SW,226,0.0,3.3,51,0.00,,SKC,0.00,VWS V13.01,2013-04-18 14:39:00,
2013-04-18 10:44:00,53.2,35.6,30.40,NW,316,0.0,0.0,51,0.00,,SKC,0.00,VWS V13.01,2013-04-18 14:44:00,
2013-04-18 10:49:00,52.7,34.1,30.40,South,181,0.8,0.8,49,0.00,,SKC,0.00,VWS V13.01,2013-04-18 14:49:00,
2013-04-18 10:54:00,52.3,34.2,30.41,SE,136,0.0,0.0,50,0.00,,SKC,0.00,VWS V13.01,2013-04-18 14:54:00,
2013-04-18 10:59:00,52.1,34.0,30.42,NNE,24,0.0,0.0,50,0.00,,SKC,0.00,VWS V13.01,2013-04-18 14:59:00,
2013-04-18 11:04:00,51.9,33.9,30.41,SSE,158,2.2,2.2,50,0.00,,SKC,0.00,VWS V13.01,2013-04-18 15:04:00,
2013-04-18 11:09:00,51.6,34.1,30.41,SW,226,0.0,0.0,51,0.00,,SKC,0.00,VWS V13.01,2013-04-18 15:09:00,
2013-04-18 11:14:00,51.4,34.4,30.41,SSW,204,0.0,0.0,52,0.00,,SKC,0.00,VWS V13.01,2013-04-18 15:14:00,
2013-04-18 11:19:00,51.0,35.4,30.41,SSW,204,0.0,0.0,55,0.00,,SKC,0.00,VWS V13.01,2013-04-18 15:19:00,
2013-04-18 11:24:00,50.3,35.7,30.41,ESE,114,0.0,0.0,57,0.00,,SKC,0.00,VWS V13.01,2013-04-18 15:24:00,
2013-04-18 11:29:00,49.6,35.9,30.41,ESE,114,0.0,0.0,59,0.00,,SKC,0.00,VWS V13.01,2013-04-18 15:29:00,
2013-04-18 11:34:00,49.2,35.9,30.40,ESE,114,0.0,0.0,60,0.00,,SKC,0.00,VWS V13.01,2013-04-18 15:34:00,
2013-04-18 11:39:00,48.7,36.3,30.40,SSE,158,0.0,0.0,62,0.00,,SKC,0.00,VWS V13.01,2013-04-18 15:39:00,
2013-04-18 11:44:00,48.5,36.5,30.39,SSW,204,0.0,0.0,63,0.00,,SKC,0.00,VWS V13.01,2013-04-18 15:44:00,
2013-04-18 11:49:00,48.5,36.9,30.39,SE,136,0.0,0.0,64,0.00,,SKC,0.00,VWS V13.01,2013-04-18 15:49:00,
2013-04-18 11:54:00,48.7,37.5,30.38,ENE,68,0.0,0.0,65,0.00,,SKC,0.00,VWS V13.01,2013-04-18 15:54:00,
2013-04-18 11:59:00,48.9,38.1,30.38,SE,136,0.0,0.0,66,0.00,,SKC,0.00,VWS V13.01,2013-04-18 15:59:00,
2013-04-18 12:04:00,49.2,38.7,30.38,SSW,204,0.0,0.0,67,0.00,,SKC,0.00,VWS V13.01,2013-04-18 16:04:00,
2013-04-18 12:09:00,49.6,38.3,30.37,South,181,0.0,3.5,65,0.00,,SKC,0.00,VWS V13.01,2013-04-18 16:09:00,
2013-04-18 12:14:00,49.6,38.3,30.37,West,271,0.0,0.0,65,0.00,,SKC,0.00,VWS V13.01,2013-04-18 16:14:00,
2013-04-18 12:19:00,49.8,38.5,30.36,South,181,5.1,5.1,65,0.00,,SKC,0.00,VWS V13.01,2013-04-18 16:19:00,
2013-04-18 12:24:00,50.1,38.8,30.36,West,271,0.0,0.0,65,0.00,,SKC,0.00,VWS V13.01,2013-04-18 16:24:00,
2013-04-18 12:29:00,50.3,38.6,30.35,West,271,0.0,0.0,64,0.00,,SKC,0.00,VWS V13.01,2013-04-18 16:29:00,
2013-04-18 12:34:00,50.3,38.6,30.36,ENE,68,3.8,3.8,64,0.00,,SKC,0.00,VWS V13.01,2013-04-18 16:34:00,
2013-04-18 12:39:00,50.5,39.2,30.36,ENE,68,0.0,1.1,65,0.00,,SKC,0.00,VWS V13.01,2013-04-18 16:39:00,
2013-04-18 12:44:00,50.5,39.2,30.36,East,91,0.0,0.0,65,0.00,,SKC,0.00,VWS V13.01,2013-04-18 16:44:00,
2013-04-18 12:49:00,50.5,39.2,30.35,SE,136,0.6,0.6,65,0.00,,SKC,0.00,VWS V13.01,2013-04-18 16:49:00,
2013-04-18 12:54:00,51.0,39.7,30.34,NE,46,2.4,3.8,65,0.00,,SKC,0.00,VWS V13.01,2013-04-18 16:54:00,
2013-04-18 12:59:00,51.6,40.6,30.33,SSE,158,1.5,1.5,66,0.00,,SKC,0.00,VWS V13.01,2013-04-18 16:59:00,
2013-04-18 13:04:00,52.3,41.3,30.33,NNW,338,2.4,2.4,66,0.00,,SKC,0.00,VWS V13.01,2013-04-18 17:04:00,
2013-04-18 13:09:00,53.4,41.9,30.32,NNE,24,1.1,1.1,65,0.00,,SKC,0.00,VWS V13.01,2013-04-18 17:09:00,
2013-04-18 13:14:00,54.1,42.2,30.33,NNE,24,6.2,6.2,64,0.00,,SKC,0.00,VWS V13.01,2013-04-18 17:14:00,
2013-04-18 13:19:00,54.5,42.6,30.33,SE,136,2.2,2.2,64,0.00,,SKC,0.00,VWS V13.01,2013-04-18 17:19:00,
2013-04-18 13:24:00,55.0,42.2,30.32,SSE,158,0.0,2.0,62,0.00,,SKC,0.00,VWS V13.01,2013-04-18 17:24:00,
2013-04-18 13:29:00,55.0,42.2,30.31,South,181,0.0,0.0,62,0.00,,SKC,0.00,VWS V13.01,2013-04-18 17:29:00,
2013-04-18 13:34:00,55.2,42.4,30.30,SSE,158,0.8,0.8,62,0.00,,SKC,0.00,VWS V13.01,2013-04-18 17:34:00,
2013-04-18 13:39:00,55.4,42.2,30.30,ENE,68,2.2,2.2,61,0.00,,SKC,0.00,VWS V13.01,2013-04-18 17:39:00,
2013-04-18 13:44:00,55.9,42.2,30.30,ENE,68,4.4,4.4,60,0.00,,SKC,0.00,VWS V13.01,2013-04-18 17:44:00,
2013-04-18 13:49:00,56.6,42.5,30.29,SSE,158,3.3,3.3,59,0.00,,SKC,0.00,VWS V13.01,2013-04-18 17:49:00,
2013-04-18 13:54:00,57.5,42.4,30.28,SE,136,0.0,0.0,57,0.00,,SKC,0.00,VWS V13.01,2013-04-18 17:54:00,
2013-04-18 13:59:00,58.1,43.0,30.28,SSW,204,4.9,4.9,57,0.00,,SKC,0.00,VWS V13.01,2013-04-18 17:59:00,
2013-04-18 14:04:00,58.6,43.0,30.28,ENE,68,1.3,1.3,56,0.00,,SKC,0.00,VWS V13.01,2013-04-18 18:04:00,
2013-04-18 14:09:00,59.3,43.6,30.28,South,181,2.6,2.6,56,0.00,,SKC,0.00,VWS V13.01,2013-04-18 18:09:00,
2013-04-18 14:14:00,60.0,43.8,30.27,South,181,4.9,4.9,55,0.00,,SKC,0.00,VWS V13.01,2013-04-18 18:14:00,
2013-04-18 14:19:00,60.6,43.9,30.27,SE,136,0.0,0.0,54,0.00,,SKC,0.00,VWS V13.01,2013-04-18 18:19:00,
2013-04-18 14:24:00,60.6,43.4,30.26,ENE,68,0.0,0.0,53,0.00,,SKC,0.00,VWS V13.01,2013-04-18 18:24:00,
2013-04-18 14:29:00,60.6,42.4,30.26,SSW,204,10.7,10.7,51,0.00,,SKC,0.00,VWS V13.01,2013-04-18 18:29:00,
2013-04-18 14:34:00,60.4,42.2,30.26,WSW,248,4.4,4.4,51,0.00,,SKC,0.00,VWS V13.01,2013-04-18 18:34:00,
2013-04-18 14:39:00,60.4,41.7,30.25,NNW,338,1.3,1.3,50,0.00,,SKC,0.00,VWS V13.01,2013-04-18 18:39:00,
2013-04-18 14:44:00,60.4,41.2,30.25,South,181,0.0,0.0,49,0.00,,SKC,0.00,VWS V13.01,2013-04-18 18:44:00,
2013-04-18 14:49:00,60.4,41.2,30.25,SW,226,2.9,2.9,49,0.00,,SKC,0.00,VWS V13.01,2013-04-18 18:49:00,
2013-04-18 14:54:00,60.4,41.2,30.24,SSW,204,6.2,6.2,49,0.00,,SKC,0.00,VWS V13.01,2013-04-18 18:54:00,
2013-04-18 14:59:00,60.6,41.4,30.24,SW,226,5.1,5.1,49,0.00,,SKC,0.00,VWS V13.01,2013-04-18 18:59:00,
2013-04-18 15:04:00,60.9,41.6,30.23,South,181,10.9,10.9,49,0.00,,SKC,0.00,VWS V13.01,2013-04-18 19:04:00,
2013-04-18 15:09:00,61.8,41.9,30.23,SSW,204,0.8,1.5,48,0.00,,SKC,0.00,VWS V13.01,2013-04-18 19:09:00,
2013-04-18 15:14:00,62.6,42.1,30.22,SSE,158,3.8,3.8,47,0.00,,SKC,0.00,VWS V13.01,2013-04-18 19:14:00,
2013-04-18 15:19:00,63.3,42.8,30.21,SSW,204,4.9,4.9,47,0.00,,SKC,0.00,VWS V13.01,2013-04-18 19:19:00,
2013-04-18 15:24:00,64.0,42.3,30.22,SSW,204,5.1,5.3,45,0.00,,SKC,0.00,VWS V13.01,2013-04-18 19:24:00,
2013-04-18 15:29:00,64.2,43.0,30.21,SW,226,0.0,0.0,46,0.00,,SKC,0.00,VWS V13.01,2013-04-18 19:29:00,
2013-04-18 15:34:00,64.5,42.7,30.20,SW,226,0.0,0.0,45,0.00,,SKC,0.00,VWS V13.01,2013-04-18 19:34:00,
2013-04-18 15:39:00,64.5,42.7,30.20,North,1,0.2,0.2,45,0.00,,SKC,0.00,VWS V13.01,2013-04-18 19:39:00,
2013-04-18 15:44:00,64.5,42.7,30.19,SW,226,0.0,0.0,45,0.00,,SKC,0.00,VWS V13.01,2013-04-18 19:44:00,
2013-04-18 15:49:00,64.2,42.4,30.19,SSW,204,0.8,0.8,45,0.00,,SKC,0.00,VWS V13.01,2013-04-18 19:49:00,
2013-04-18 15:54:00,65.3,43.4,30.19,SSE,158,0.0,2.2,45,0.00,,SKC,0.00,VWS V13.01,2013-04-18 19:54:00,
2013-04-18 15:59:00,66.0,42.9,30.19,ESE,114,2.0,2.0,43,0.00,,SKC,0.00,VWS V13.01,2013-04-18 19:59:00,
2013-04-18 16:04:00,66.0,41.7,30.19,SSE,158,5.1,5.1,41,0.00,,SKC,0.00,VWS V13.01,2013-04-18 20:04:00,
2013-04-18 16:09:00,65.4,41.1,30.18,ENE,68,3.3,3.5,41,0.00,,SKC,0.00,VWS V13.01,2013-04-18 20:09:00,
2013-04-18 16:14:00,65.3,41.6,30.18,NE,46,0.0,0.0,42,0.00,,SKC,0.00,VWS V13.01,2013-04-18 20:14:00,
2013-04-18 16:19:00,65.1,40.8,30.17,SW,226,0.0,0.0,41,0.00,,SKC,0.00,VWS V13.01,2013-04-18 20:19:00,
2013-04-18 16:24:00,65.3,41.6,30.18,SE,136,3.8,3.8,42,0.00,,SKC,0.00,VWS V13.01,2013-04-18 20:24:00,
2013-04-18 16:29:00,65.4,42.3,30.18,SW,226,1.7,1.7,43,0.00,,SKC,0.00,VWS V13.01,2013-04-18 20:29:00,
2013-04-18 16:34:00,65.4,42.3,30.18,SSW,204,5.3,5.3,43,0.00,,SKC,0.00,VWS V13.01,2013-04-18 20:34:00,
2013-04-18 16:39:00,65.4,42.3,30.18,South,181,6.9,6.9,43,0.00,,SKC,0.00,VWS V13.01,2013-04-18 20:39:00,
2013-04-18 16:44:00,65.6,41.9,30.17,South,181,4.6,4.6,42,0.00,,SKC,0.00,VWS V13.01,2013-04-18 20:44:00,
2013-04-18 16:49:00,65.8,42.1,30.17,WSW,248,0.0,2.0,42,0.00,,SKC,0.00,VWS V13.01,2013-04-18 20:49:00,
2013-04-18 16:54:00,65.4,41.7,30.17,SW,226,4.0,4.0,42,0.00,,SKC,0.00,VWS V13.01,2013-04-18 20:54:00,
2013-04-18 16:59:00,65.6,42.5,30.17,NW,316,3.1,3.1,43,0.00,,SKC,0.00,VWS V13.01,2013-04-18 20:59:00,
2013-04-18 17:04:00,65.6,41.9,30.17,SSW,204,5.1,5.1,42,0.00,,SKC,0.00,VWS V13.01,2013-04-18 21:04:00,
2013-04-18 17:09:00,65.4,41.1,30.17,NE,46,0.8,0.8,41,0.00,,SKC,0.00,VWS V13.01,2013-04-18 21:09:00,
2013-04-18 17:14:00,65.3,41.0,30.16,SSE,158,5.3,5.3,41,0.00,,SKC,0.00,VWS V13.01,2013-04-18 21:14:00,
2013-04-18 17:19:00,65.3,41.0,30.16,WSW,248,0.0,0.0,41,0.00,,SKC,0.00,VWS V13.01,2013-04-18 21:19:00,
2013-04-18 17:24:00,65.1,40.8,30.16,South,181,1.7,1.7,41,0.00,,SKC,0.00,VWS V13.01,2013-04-18 21:24:00,
2013-04-18 17:29:00,65.3,41.0,30.16,SSW,204,0.2,0.2,41,0.00,,SKC,0.00,VWS V13.01,2013-04-18 21:29:00,
2013-04-18 17:34:00,65.1,40.2,30.16,SSE,158,7.1,7.1,40,0.00,,SKC,0.00,VWS V13.01,2013-04-18 21:34:00,
2013-04-18 17:39:00,64.9,40.7,30.15,North,1,0.0,0.6,41,0.00,,SKC,0.00,VWS V13.01,2013-04-18 21:39:00,
2013-04-18 17:44:00,64.5,39.7,30.15,SW,226,0.0,0.0,40,0.00,,SKC,0.00,VWS V13.01,2013-04-18 21:44:00,
2013-04-18 17:49:00,64.5,40.3,30.14,ESE,114,0.0,4.2,41,0.00,,SKC,0.00,VWS V13.01,2013-04-18 21:49:00,
2013-04-18 17:54:00,64.5,40.3,30.14,SW,226,0.0,0.0,41,0.00,,SKC,0.00,VWS V13.01,2013-04-18 21:54:00,
2013-04-18 17:59:00,64.2,40.0,30.14,WNW,294,0.0,0.0,41,0.00,,SKC,0.00,VWS V13.01,2013-04-18 21:59:00,
2013-04-18 18:04:00,64.0,39.8,30.14,NW,316,0.0,0.0,41,0.00,,SKC,0.00,VWS V13.01,2013-04-18 22:04:00,
2013-04-18 18:09:00,63.8,39.7,30.14,ENE,68,1.3,1.3,41,0.00,,SKC,0.00,VWS V13.01,2013-04-18 22:09:00,
2013-04-18 18:14:00,63.6,39.5,30.15,SSW,204,2.9,2.9,41,0.00,,SKC,0.00,VWS V13.01,2013-04-18 22:14:00,
2013-04-18 18:19:00,63.6,39.5,30.14,South,181,0.0,0.0,41,0.00,,SKC,0.00,VWS V13.01,2013-04-18 22:19:00,
2013-04-18 18:24:00,63.5,40.0,30.14,South,181,0.0,0.6,42,0.00,,SKC,0.00,VWS V13.01,2013-04-18 22:24:00,
2013-04-18 18:29:00,63.3,39.8,30.14,South,181,0.0,0.0,42,0.00,,SKC,0.00,VWS V13.01,2013-04-18 22:29:00,
2013-04-18 18:34:00,63.1,39.7,30.14,SSE,158,0.0,3.5,42,0.00,,SKC,0.00,VWS V13.01,2013-04-18 22:34:00,
2013-04-18 18:39:00,62.7,39.3,30.14,South,181,0.0,0.0,42,0.00,,SKC,0.00,VWS V13.01,2013-04-18 22:39:00,
2013-04-18 18:44:00,62.7,39.3,30.13,SW,226,0.0,0.0,42,0.00,,SKC,0.00,VWS V13.01,2013-04-18 22:44:00,
2013-04-18 18:49:00,62.4,39.0,30.14,SSE,158,4.6,4.6,42,0.00,,SKC,0.00,VWS V13.01,2013-04-18 22:49:00,
2013-04-18 18:54:00,62.4,39.6,30.14,SW,226,2.6,2.6,43,0.00,,SKC,0.00,VWS V13.01,2013-04-18 22:54:00,
2013-04-18 18:59:00,62.2,39.5,30.13,North,1,0.0,0.0,43,0.00,,SKC,0.00,VWS V13.01,2013-04-18 22:59:00,
2013-04-18 19:04:00,61.8,39.1,30.13,SSW,204,0.0,0.0,43,0.00,,SKC,0.00,VWS V13.01,2013-04-18 23:04:00,
2013-04-18 19:09:00,61.7,39.6,30.13,SE,136,1.3,1.3,44,0.00,,SKC,0.00,VWS V13.01,2013-04-18 23:09:00,
2013-04-18 19:14:00,61.5,39.4,30.13,SSW,204,1.7,1.7,44,0.00,,SKC,0.00,VWS V13.01,2013-04-18 23:14:00,
2013-04-18 19:19:00,61.5,39.4,30.13,SSE,158,3.5,3.5,44,0.00,,SKC,0.00,VWS V13.01,2013-04-18 23:19:00,
2013-04-18 19:24:00,61.3,39.2,30.13,SSW,204,0.0,0.0,44,0.00,,SKC,0.00,VWS V13.01,2013-04-18 23:24:00,
2013-04-18 19:29:00,61.3,39.2,30.12,WSW,248,0.0,0.0,44,0.00,,SKC,0.00,VWS V13.01,2013-04-18 23:29:00,
2013-04-18 19:34:00,60.9,38.9,30.12,South,181,2.9,2.9,44,0.00,,SKC,0.00,VWS V13.01,2013-04-18 23:34:00,
2013-04-18 19:39:00,60.8,39.3,30.12,SW,226,10.9,10.9,45,0.00,,SKC,0.00,VWS V13.01,2013-04-18 23:39:00,
2013-04-18 19:44:00,60.6,39.2,30.12,SSW,204,4.0,4.0,45,0.00,,SKC,0.00,VWS V13.01,2013-04-18 23:44:00,
2013-04-18 19:49:00,60.4,39.0,30.12,SSE,158,0.0,0.0,45,0.00,,SKC,0.00,VWS V13.01,2013-04-18 23:49:00,
2013-04-18 19:54:00,60.0,39.2,30.12,NNW,338,0.0,0.6,46,0.00,,SKC,0.00,VWS V13.01,2013-04-18 23:54:00,
2013-04-18 19:59:00,60.0,39.2,30.12,WSW,248,1.5,1.5,46,0.00,,SKC,0.00,VWS V13.01,2013-04-18 23:59:00,
2013-04-18 20:04:00,60.0,39.2,30.12,South,181,5.5,9.6,46,0.00,,SKC,0.00,VWS V13.01,2013-04-19 00:04:00,
2013-04-18 20:09:00,59.9,39.1,30.12,NNE,24,0.0,2.0,46,0.00,,SKC,0.00,VWS V13.01,2013-04-19 00:09:00,
2013-04-18 20:14:00,59.9,39.6,30.13,West,271,0.0,0.0,47,0.00,,SKC,0.00,VWS V13.01,2013-04-19 00:14:00,
2013-04-18 20:19:00,59.7,39.5,30.13,NE,46,0.0,0.0,47,0.00,,SKC,0.00,VWS V13.01,2013-04-19 00:19:00,
2013-04-18 20:24:00,59.5,39.3,30.13,ESE,114,0.0,0.0,47,0.00,,SKC,0.00,VWS V13.01,2013-04-19 00:24:00,
2013-04-18 20:29:00,59.5,39.3,30.13,SE,136,2.0,2.0,47,0.00,,SKC,0.00,VWS V13.01,2013-04-19 00:29:00,
2013-04-18 20:34:00,59.3,39.1,30.13,SE,136,0.0,0.0,47,0.00,,SKC,0.00,VWS V13.01,2013-04-19 00:34:00,
2013-04-18 20:39:00,59.3,39.6,30.13,NE,46,1.1,1.1,48,0.00,,SKC,0.00,VWS V13.01,2013-04-19 00:39:00,
2013-04-18 20:44:00,59.1,39.5,30.13,SW,226,4.2,4.2,48,0.00,,SKC,0.00,VWS V13.01,2013-04-19 00:44:00,
2013-04-18 20:49:00,58.8,39.2,30.13,SSW,204,0.0,0.0,48,0.00,,SKC,0.00,VWS V13.01,2013-04-19 00:49:00,
2013-04-18 20:54:00,58.8,39.2,30.13,West,271,1.7,1.7,48,0.00,,SKC,0.00,VWS V13.01,2013-04-19 00:54:00,
2013-04-18 20:59:00,58.6,39.0,30.14,SSW,204,0.0,0.0,48,0.00,,SKC,0.00,VWS V13.01,2013-04-19 00:59:00,
2013-04-18 21:04:00,58.2,39.2,30.13,SSW,204,0.0,2.2,49,0.00,,SKC,0.00,VWS V13.01,2013-04-19 01:04:00,
2013-04-18 21:09:00,58.2,39.2,30.14,SSW,204,7.6,7.6,49,0.00,,SKC,0.00,VWS V13.01,2013-04-19 01:09:00,
2013-04-18 21:14:00,57.9,38.9,30.14,WSW,248,0.0,0.0,49,0.00,,SKC,0.00,VWS V13.01,2013-04-19 01:14:00,
2013-04-18 21:19:00,57.7,39.2,30.14,NE,46,0.2,0.2,50,0.00,,SKC,0.00,VWS V13.01,2013-04-19 01:19:00,
2013-04-18 21:24:00,57.7,39.2,30.13,SE,136,0.0,2.9,50,0.00,,SKC,0.00,VWS V13.01,2013-04-19 01:24:00,
2013-04-18 21:29:00,57.5,39.0,30.13,South,181,0.0,0.0,50,0.00,,SKC,0.00,VWS V13.01,2013-04-19 01:29:00,
2013-04-18 21:34:00,57.3,39.3,30.13,South,181,2.9,2.9,51,0.00,,SKC,0.00,VWS V13.01,2013-04-19 01:34:00,
2013-04-18 21:39:00,57.0,39.1,30.12,WNW,294,0.0,0.0,51,0.00,,SKC,0.00,VWS V13.01,2013-04-19 01:39:00,
2013-04-18 21:44:00,57.0,39.1,30.12,South,181,0.0,0.0,51,0.00,,SKC,0.00,VWS V13.01,2013-04-19 01:44:00,
2013-04-18 21:49:00,56.8,38.9,30.12,SSE,158,0.0,0.0,51,0.00,,SKC,0.00,VWS V13.01,2013-04-19 01:49:00,
2013-04-18 21:54:00,56.8,39.4,30.12,ENE,68,0.0,0.0,52,0.00,,SKC,0.00,VWS V13.01,2013-04-19 01:54:00,
2013-04-18 21:59:00,56.8,39.4,30.12,SE,136,0.0,0.0,52,0.00,,SKC,0.00,VWS V13.01,2013-04-19 01:59:00,
2013-04-18 22:04:00,56.6,39.2,30.12,South,181,1.3,1.3,52,0.00,,SKC,0.00,VWS V13.01,2013-04-19 02:04:00,
2013-04-18 22:09:00,56.4,39.0,30.13,South,181,0.0,0.0,52,0.00,,SKC,0.00,VWS V13.01,2013-04-19 02:09:00,
2013-04-18 22:14:00,56.3,38.9,30.12,SSE,158,5.8,5.8,52,0.00,,SKC,0.00,VWS V13.01,2013-04-19 02:14:00,
2013-04-18 22:19:00,56.1,38.7,30.12,South,181,0.0,1.3,52,0.00,,SKC,0.00,VWS V13.01,2013-04-19 02:19:00,
2013-04-18 22:24:00,55.9,39.0,30.12,NW,316,1.3,6.2,53,0.00,,SKC,0.00,VWS V13.01,2013-04-19 02:24:00,
2013-04-18 22:29:00,55.9,39.0,30.12,South,181,0.0,0.0,53,0.00,,SKC,0.00,VWS V13.01,2013-04-19 02:29:00,
2013-04-18 22:34:00,55.9,39.0,30.12,South,181,4.9,4.9,53,0.00,,SKC,0.00,VWS V13.01,2013-04-19 02:34:00,
2013-04-18 22:39:00,55.9,39.0,30.12,North,1,2.0,2.0,53,0.00,,SKC,0.00,VWS V13.01,2013-04-19 02:39:00,
2013-04-18 22:44:00,55.9,39.5,30.13,SW,226,0.0,0.0,54,0.00,,SKC,0.00,VWS V13.01,2013-04-19 02:44:00,
2013-04-18 22:49:00,55.9,39.5,30.13,SW,226,0.0,0.0,54,0.00,,SKC,0.00,VWS V13.01,2013-04-19 02:49:00,
2013-04-18 22:54:00,55.9,39.5,30.13,West,271,0.0,0.0,54,0.00,,SKC,0.00,VWS V13.01,2013-04-19 02:54:00,
2013-04-18 22:59:00,55.9,40.0,30.12,SSW,204,0.0,0.0,55,0.00,,SKC,0.00,VWS V13.01,2013-04-19 02:59:00,
2013-04-18 23:04:00,55.9,40.0,30.12,WSW,248,4.9,4.9,55,0.00,,SKC,0.00,VWS V13.01,2013-04-19 03:04:00,
2013-04-18 23:09:00,55.9,40.0,30.11,West,271,0.0,0.0,55,0.00,,SKC,0.00,VWS V13.01,2013-04-19 03:09:00,
2013-04-18 23:14:00,55.7,40.3,30.10,NW,316,0.0,0.0,56,0.00,,SKC,0.00,VWS V13.01,2013-04-19 03:14:00,
2013-04-18 23:19:00,55.7,40.7,30.10,SSE,158,1.3,1.3,57,0.00,,SKC,0.00,VWS V13.01,2013-04-19 03:19:00,
2013-04-18 23:24:00,55.7,40.7,30.10,South,181,0.0,0.0,57,0.00,,SKC,0.00,VWS V13.01,2013-04-19 03:24:00,
2013-04-18 23:29:00,55.7,41.2,30.10,SSE,158,0.0,0.0,58,0.00,,SKC,0.00,VWS V13.01,2013-04-19 03:29:00,
2013-04-18 23:34:00,55.7,41.2,30.10,SSE,158,0.0,0.0,58,0.00,,SKC,0.00,VWS V13.01,2013-04-19 03:34:00,
2013-04-18 23:39:00,55.7,41.6,30.11,ENE,68,2.4,2.4,59,0.00,,SKC,0.00,VWS V13.01,2013-04-19 03:39:00,
2013-04-18 23:44:00,55.7,41.6,30.10,South,181,0.0,0.0,59,0.00,,SKC,0.00,VWS V13.01,2013-04-19 03:44:00,
2013-04-18 23:49:00,55.7,41.6,30.09,South,181,3.1,3.1,59,0.00,,SKC,0.00,VWS V13.01,2013-04-19 03:49:00,
2013-04-18 23:54:00,55.7,41.6,30.09,SSE,158,0.0,0.0,59,0.00,,SKC,0.00,VWS V13.01,2013-04-19 03:54:00,
2013-04-18 23:59:00,55.7,41.6,30.09,SW,226,9.8,9.8,59,0.00,,SKC,0.00,VWS V13.01,2013-04-19 03:59:00,